Starlink 6315

operational
NORAD ID: 57236 Int'l Des: 2023-094 Owner: SPXS Country: US Constellation: starlink
LEOCIRCULAR

About Starlink 6315

Description loading...

Live Position

Loading 3D Globe...

Upcoming Passes

Altitude History

Altitude vs Time

uPlot chart will show altitude changes over time

Two-Line Element Set

1 57236U 23094U 25351.32386442 .00000345 00000-0 40635-4 0 9993
2 57236 43.0035 105.4270 0001293 267.2527 92.8167 15.02536881134870
Epoch: Dec 17, 2025 • Age: 7 hours

Current Status

Altitude 562.4 km
Velocity 7.59 km/s
Sub-Earth Point 39.95°N, 136.22°W
Launch Date Jul 7, 2023
Age 2.4 years
Type internet

Technical Details

Classification Payload
Mass 305.00 kg
Dry Mass 290.00 kg
Total Mass 305.00 kg
Length 0.20 m
Diameter 2.80 m
Span 9.00 m
Shape Box + pan
Manufacturer SPXS
Bus Type Starlink
Phase Status In Orbit
Owner/State SPXS/US

Large Constellations

Loading constellations...